www.pogodaiklimat.ru

Погода и климат >> Архив погоды >> Россия >> Коми >> Усть-Цильма


АРХИВ ПОГОДЫ в Усть-Цильме

Время (UTC), дата Ветер
(напр.,м/с)
 
Видим.   Явления Облачность Т
(С)
Тd
(С)
f
(%)
Тe
(С)
Тes
(С)
Комфортность P
(гПа)
Po
(гПа)
Тmin
(С)
Tmax
(С)
R
(мм)
R24
(мм)
S
(см)
06 11.07 нст 1 5000 м в посл. час дождь {туман} 10/9 180 м
[St Ac und]
+9.4 +8.4 93 +9 +9 990.2 980.8
09 11.07 СЗ 3 19 км 9/8 500 м
[Sc Ac trans]
+10.3 +8.3 87 +8 +10 992.1 982.7
12 11.07 СЗ 2 22 км 10/6 800 м
[Sc Ac und]
+11.6 +7.5 76 +11 +11 994.8 985.4
15 11.07 З 3 20 км 9/9 960 м
[Sc]
+10.8 +5.9 72 +9 +9 997.7 988.2 +12.3 0.7
18 11.07 З 2 18 км 9/9 1050 м
[Sc]
+9.8 +4.7 71 +8 +8 1000.2 990.7
21 11.07 15 км 6/6 1000 м
[Sc]
+8.0 +5.1 82 1002.7 993.2
00 12.07 20 км 6/4 1000 м
[Sc Ci fib]
+6.5 +5.6 94 1005.2 995.6
03 12.07 ЮЗ 2 24 км 3/0
[Ci fib]
+9.5 +6.3 80 +8 +11 1007.1 997.5 +6.1
06 12.07 ЮЗ 2 26 км 8/3 1500 м
[Cu hum Ci]
+13.5 +4.6 55 +13 +19 1008.4 999.0
09 12.07 ЮЗ 4 25 км 9/9 1500 м
[Cu hum Ci fib]
+16.2 +4.5 46 +16 +16 1008.8 999.4
12 12.07 ЮВ 2 25 км 9/8 1500 м
[Cb cap Ci]
+17.8 +5.2 43 +18 +20 1009.1 999.8
15 12.07 ЮВ 2 19 км 9/8 1440 м
[Cb cap Ac trans Ci]
+16.4 +5.9 50 +17 +17 1009.5 1000.1 +18.9
18 12.07 В 2 11 км слаб. ливневой дождь 10/6 480 м
[Cb cap Ac und]
+13.7 +10.2 79 +13 +13 1010.0 1000.6
21 12.07 В 3 16 км в посл. час ливневой дождь 10/4 600 м
[Cb cap Ac und]
+12.2 +10.9 92 +11 +11 1009.3 999.9
00 13.07 Ю 3 20 км {ливн. осадки} 1/0
[Ac trans]
+11.7 +10.5 92 +10 +10 1009.4 1000.0
03 13.07 З 2 22 км 5/3 600 м
[Cu hum Ci fib]
+13.3 +11.0 86 +13 +15 1010.9 1001.5 +11.5 2
06 13.07 ЮЗ 2 25 км 5/1 600 м
[Cu hum Cc]
+15.8 +10.5 71 +16 +23 1011.1 1001.7
09 13.07 Ю 1 24 км 9/4 600 м
[Cu hum Cs]
+18.2 +10.8 62 +20 +26 1010.6 1001.3
12 13.07 23 км 10/3 1500 м
[Cu hum Cs]
+19.4 +10.8 57 1008.8 999.5
15 13.07 нст 1 20 км 10/8 1380 м
[Cu hum Ac und]
+17.9 +11.5 66 +19 +19 1007.9 998.6 +19.8
18 13.07 В 2 22 км 9/0
[Ac trans]
+15.7 +14.1 90 +16 +16 1007.2 997.8
21 13.07 19 км 9/0
[Ac trans]
+14.3 +13.2 93 1006.9 997.5
00 14.07 23 км 9/0
[Ac trans]
+13.4 +12.5 94 1007.7 998.3
03 14.07 штиль 0 26 км 3/0
[Ac trans]
+16.0 +11.6 75 +16 +19 1009.0 999.7 +12.1
06 14.07 25 км 4/3 1500 м
[Cu hum Ci fib]
+20.0 +11.5 58 1009.5 1000.2
09 14.07 27 км 9/3 1000 м
[Cb cap Ac trans]
+19.2 +11.6 61 1009.9 1000.6
12 14.07 С 2 25 км 10/3 1500 м
[Cu hum Ac trans Cs]
+20.3 +10.8 54 +23 +25 комфорт 1009.6 1000.3
15 14.07 СВ 2 22 км 10/3 1000 м
[Sc Ac und]
+17.6 +12.0 70 +18 +18 1009.6 1000.3 +21.6
18 14.07 СВ 2 25 км 10/4 1000 м
[Sc Ac und]
+17.2 +9.4 60 +18 +18 1009.3 1000.0
21 14.07 СВ 4 20 км 9/3 1000 м
[Sc Ac trans]
+14.9 +9.5 70 +14 +14 1009.9 1000.5
00 15.07 С 2 23 км 8/3 1000 м
[Cb cap Ac trans]
+13.4 +11.1 86 +13 +13 1010.7 1001.3
03 15.07 Ю 2 27 км 4/0
[Ac trans]
+16.9 +12.8 77 +17 +20 1011.7 1002.4 +13.3
06 15.07 Ю 1 28 км 8/6 1200 м
[Cu hum Ac trans Ci fib]
+18.2 +14.0 76 +20 +23 1012.3 1003.0
09 15.07 Ю 4 29 км 8/3 1000 м
[Cu hum Ci fib]
+21.2 +10.2 49 +23 +27 комфорт 1012.2 1003.1
12 15.07 Ю 4 27 км 8/4 1000 м
[Cu hum Ci fib]
+22.3 +9.3 43 +24 +26 комфорт 1011.6 1002.5
15 15.07 В 3 26 км 6/0
[Ac trans Ci fib]
+21.7 +9.5 46 +23 +24 комфорт 1011.1 1002.0 +22.6
18 15.07 В 2 20 км 10/0
[Ac trans Cs]
+17.4 +9.2 59 +18 +18 1011.1 1001.8
21 15.07 В 3 18 км 10/0
[Ac und]
+15.3 +8.6 64 +15 +15 1010.5 1001.1
00 16.07 В 3 21 км 10/0
[Ac As]
+13.0 +9.5 79 +12 +12 1009.5 1000.1
03 16.07 СВ 4 9000 м слаб. ливневой дождь 10/4 1000 м
[Cb cap Ac und]
+10.4 +9.2 92 +8 +8 1008.2 998.6 +10.4 0.5
06 16.07 С 5-10
{10}
2000 м гроза, ливневой дождь 10/9 300 м
[Cb cap Ac und]
+9.1 +8.5 96 +6 +6 1005.8 996.2 +9.0
09 16.07 С 5
{11}
11 км слаб. ливневой дождь {гроза} 10/9 210 м
[Cb cap Ac und]
+9.5 +8.5 93 +6 +6 1004.2 994.7
12 16.07 С 6-11
{10}
3200 м ливневой дождь {гроза} 10/9 240 м
[Cb cap Ac und]
+9.7 +8.9 95 +6 +6 1003.5 994.0
15 16.07 СЗ 3
{11}
12 км слаб. ливневой дождь 10/8 450 м
[Cb cap Ac und]
+9.9 +8.9 93 +8 +8 1004.6 995.0 +10.7 39
18 16.07 СЗ 3
{11}
15 км {ливн. осадки} 10/8 400 м
[Cb cap Ac und]
+10.1 +8.7 91 +8 +8 1006.3 996.7
21 16.07 СЗ 2 10 км 10/6 360 м
[Cb cap Ac und]
+10.1 +8.9 92 +8 +8 1007.1 997.5
00 17.07 СЗ 2 12 км 10/10 270 м
[St]
+9.9 +8.7 92 +8 +8 1009.6 1000.0
03 17.07 СЗ 3 15 км 9/9 400 м
[Sc]
+9.6 +7.3 86 +7 +8 1012.3 1002.7 +9.5 0.0
06 17.07 СЗ 3 24 км 10/10 570 м
[Sc]
+11.3 +8.3 82 +9 +9 1014.3 1004.9
09 17.07 СЗ 3 27 км 8/3 600 м
[Sc Ci fib]
+13.8 +8.7 71 +13 +18 1015.6 1006.1
12 17.07 С 3 30 км 6/3 1500 м
[Cu hum Ci fib]
+17.2 +8.7 57 +17 +21 1016.6 1007.2
15 17.07 СВ 3 26 км 8/0
[Ac trans Ci fib]
+17.4 +8.9 57 +17 +18 1016.8 1007.4 +17.5
18 17.07 СВ 2 23 км 8/0
[Ci fib]
+13.7 +8.8 72 +13 +13 1017.5 1008.0
21 17.07 СВ 2 20 км 6/0
[Ci fib]
+10.6 +8.6 87 +9 +9 1018.7 1009.0
00 18.07 СВ 1 24 км 9/0
[Ac trans Ci fib]
+8.3 +7.2 93 +7 +8 1019.8 1010.1
03 18.07 С 2 26 км 9/0
[Ac trans Ci fib]
+10.8 +9.6 92 +9 +11 1019.4 1009.7 +7.0

 

Местоположение метеостанции Усть-Цильма (Коми, Россия): широта 65.43 долгота 52.27 высота над уровнем моря 79 м.

В архиве по умолчанию представлена погода в Усть-Цильме за последнюю неделю. Архивные данные за месяц целиком и за предыдущие месяцы, начиная с января 2011 года, Вы можете получить, выбрав интересующий диапазон дат из раскрывающегося списка и нажав кнопку "Ввод!".


*Определитесь, кто Вы:
робот инопланетянин человек

Внимание! Время в таблицах - всемирное. Для получения местного времени необходимо прибавить поправку, которая равна 3 ч.

Смотрите также архив погоды в соседних городах и на ближайших метеорологических станциях:

Погода в Ижме (Коми, Россия) (91 км)
Погода в Окуневом Носу (Коми, Россия) (92 км)
Погода в Мутном Материке (Коми, Россия) (145 км)
Погода в Кедва-Воме (Коми, Россия) (148 км)
Погода в Ираеле (Коми, Россия) (179 км)
Погода в Коткино (Ненецкий АО, Россия) (185 км)
Погода в Усть-Усе (Коми, Россия) (221 км)
Погода в Ухте (Коми, Россия) (222 км)
Погода в Печоре (Коми, Россия) (227 км)
Погода в Койнасе (Архангельская область, Россия) (229 км)

Пояснения к столбцам:

Ветер - указаны скорость ветра в м/с - средняя за 10 мин, порывы в срок и между сроками (в фигурных скобках) и направление, откуда дует ветер: С - северный, СВ - северо-восточный, В - восточный, ЮВ - юго-восточный, Ю - южный, ЮЗ - юго-западный, З - западный, СЗ - северо-западный.
Видимость - горизонтальная дальность видимости в метрах или километрах. При видимости от 1 до 10 км при отсутствии осадков обычно наблюдается дымка, при ухудшении видимости до 1 км и менее - туман. В сухую погоду видимость может ухудшаться дымом, пылью или мглою.
Явления - указаны атмосферные явления, наблюдавшиеся в срок или в последний час перед сроком; фигурными скобками обозначены явления, наблюдавшиеся между сроками (за 1-3 часа до срока); квадратными скобками обозначены град или гололедные отложения с указанием их диаметра в мм.
Облачность - указаны через наклонную черту общая и нижняя облачность в баллах и высота нижней границы облаков в метрах; квадратными скобками обозначены формы облаков: Ci - перистые, Cs - перисто-слоистые, Cc - перисто-кучевые, Ac - высококучевые, As - высокослоистые, Sc - слоисто-кучевые, Ns - слоисто-дождевые, Cu - кучевые, Cb - кучево-дождевые. Подробнее классификацию облаков см. в Атласе облаков (PDF).
T - Температура воздуха - температура, измеренная на высоте 2 м над землей.
Td - Температура точки росы - температура, при понижении до которой содержащийся в воздухе водяной пар достигнет насыщения.
f - Относительная влажность воздуха - влажноcть воздуха, измеренная на высоте 2 м над землей.
Te - Эффективная температура - температура, которую ощущает одетый по сезону человек в тени. Характеристика душности погоды. При расчете учитывается влияние влажности воздуха и скорости ветра на теплоощущения человека.
Tes - Эффективная температура на солнце - температура, которую ощущает человек, с поправкой на солнечный нагрев. Характеристика знойности погоды. Зависит от высоты солнца над горизонтом, облачности и скорости ветра. Ночью, в пасмурную погоду, а также при ветре 12 м/с и более поправка равна нулю.
P - Атмосферное давление - приведенное к уровню моря атмосферное давление.
Po - Атмосферное давление - измеренное на уровне метеостанции атмосферное давление.
Tmin - Минимальная температура - минимум температуры воздуха на высоте 2 м над землей.
Tmax - Максимальная температура - максимум температуры воздуха на высоте 2 м над землей.
R - Количество осадков - Количество выпавших осадков за период времени, мм. При наведении курсора мыши на число - период времени, за который выпало указанное количество осадков.
R24 - Количество осадков - Количество выпавших осадков за 24 часа, мм.
S - Снежный покров - Высота снежного покрова, см. При наведении курсора мыши на число - состояние снежного покрова и степень покрытия местности в баллах.